Weather History for London, United Kingdom

Change the Weather History Date:

Thursday, March 14, 2013

  Actual Average Record
Temperature  
Mean Temperature 37 °F -  
Max Temperature 46 °F 53 °F 62 °F (2014)
Min Temperature 28 °F 39 °F 28 °F (2013)
Degree Days  
Heating Degree Days 28    
Moisture  
Dew Point 25 °F    
Average Humidity 63    
Maximum Humidity 93    
Minimum Humidity 27    
Precipitation  
Precipitation 0.00 in - - ()
Sea Level Pressure  
Sea Level Pressure 29.99 in    
Wind  
Wind Speed 5 mph ()    
Max Wind Speed 13 mph    
Max Gust Speed -    
Visibility 6.3 miles    
Events      
Averages and records for this station are not official NWS values.
T = Trace of Precipitation, MM = Missing Value Source: Averaged Metar Reports

Daily Weather History Graph

Daily Weather History Graph

Search for Another Location

Airport:

Trip Planner

Search our weather history database for the weather conditions in past years. The results will help you decide how hot, cold, wet, or windy it might be!

Date:

Astronomy

Mar. 14, 2013 Rise Set
Actual Time 6:17 AM GMT 6:04 PM GMT
Civil Twilight 5:44 AM GMT 6:38 PM GMT
Nautical Twilight 5:06 AM GMT 7:17 PM GMT
Astronomical Twilight 4:26 AM GMT 7:57 PM GMT
Moon 7:00 AM GMT (3/14) 9:33 PM GMT (3/14)
Length of Visible Light 12h 53m
Length of Day
11h 46m
Waxing Crescent, 8% of the Moon is Illuminated
Mar 14
Waxing Crescent
Mar 19
First Quarter
Mar 27
Full
Apr 3
Last Quarter
Apr 10
New

Hourly Weather History & Observations

Time (GMT) Temp. Windchill Dew Point Humidity Pressure Visibility Wind Dir Wind Speed Gust Speed Precip Events Conditions
12:20 AM 32.0 °F 27.5 °F 28.4 °F 87% 29.98 in - NW 4.6 mph - N/A   Clear
12:50 AM 30.2 °F 26.7 °F 28.4 °F 93% 29.98 in 5.6 mi NW 3.5 mph - N/A   Unknown
1:20 AM 30.2 °F 26.7 °F 26.6 °F 86% 29.98 in 5.0 mi NW 3.5 mph - N/A   Unknown
1:50 AM 30.2 °F 26.7 °F 26.6 °F 86% 29.98 in 5.0 mi Variable 3.5 mph - N/A   Unknown
2:20 AM 30.2 °F 25.4 °F 26.6 °F 86% 29.98 in 4.3 mi WNW 4.6 mph - N/A   Unknown
2:50 AM 28 °F - 27 °F 92% 29.99 in 5 mi West 2.3 mph - -   Light Haze
2:50 AM 30.2 °F 26.7 °F 26.6 °F 86% 29.98 in 4.3 mi Variable 3.5 mph - N/A   Unknown
3:20 AM 30.2 °F 26.7 °F 26.6 °F 86% 29.98 in 4.3 mi NW 3.5 mph - N/A   Unknown
3:50 AM 28.4 °F 23.3 °F 26.6 °F 93% 29.98 in 4.3 mi WNW 4.6 mph - N/A   Unknown
4:20 AM 28.4 °F 23.3 °F 26.6 °F 93% 29.98 in 4.3 mi NW 4.6 mph - N/A   Unknown
4:50 AM 28.4 °F 23.3 °F 26.6 °F 93% 29.98 in 4.3 mi NW 4.6 mph - N/A   Unknown
5:20 AM 28.4 °F - 26.6 °F 93% 30.01 in 4.3 mi Variable 2.3 mph - N/A   Unknown
5:50 AM 28 °F - 27 °F 93% 30.01 in 4 mi WNW 4.6 mph - -   Light Haze
5:50 AM 28.4 °F 23.3 °F 26.6 °F 93% 30.01 in 3.7 mi West 4.6 mph - N/A   Unknown
6:20 AM 28.4 °F 23.3 °F 26.6 °F 93% 30.01 in 3.7 mi West 4.6 mph - N/A   Unknown
6:50 AM 30.2 °F - 26.6 °F 86% 30.01 in 3.7 mi Variable 2.3 mph - N/A   Unknown
7:20 AM 30.2 °F 26.7 °F 28.4 °F 93% 30.01 in 4.3 mi WNW 3.5 mph - N/A   Unknown
7:50 AM 32.0 °F 28.7 °F 28.4 °F 87% 30.01 in 4.3 mi Variable 3.5 mph - N/A   Unknown
8:20 AM 33.8 °F 30.8 °F 28.4 °F 81% 30.04 in 4.3 mi Variable 3.5 mph - N/A   Unknown
8:50 AM 36 °F - 31 °F 75% 30.04 in 6 mi NW 3.5 mph - -  
8:50 AM 35.6 °F - 30.2 °F 81% 30.04 in 5.0 mi Variable 2.3 mph - N/A   Unknown
9:50 AM 39.2 °F 35.0 °F 30.2 °F 70% 30.04 in 6.2 mi North 5.8 mph - N/A   Scattered Clouds
10:20 AM 39.2 °F 35.0 °F 28.4 °F 65% 30.04 in 6.2 mi NNW 5.8 mph - N/A   Scattered Clouds
10:50 AM 39.2 °F 35.0 °F 28.4 °F 65% 30.04 in 6.2 mi North 5.8 mph - N/A   Scattered Clouds
11:20 AM 41.0 °F 38.0 °F 26.6 °F 57% 30.04 in 6.2 mi NNW 4.6 mph - N/A   Scattered Clouds
11:50 AM 40 °F - 27 °F 48% 30.04 in 19 mi NNW 5.8 mph - -   Partly Cloudy
11:50 AM 41.0 °F 37.1 °F 26.6 °F 57% 30.04 in 6.2 mi NW 5.8 mph - N/A   Scattered Clouds
12:20 PM 42.8 °F 38.6 °F 26.6 °F 53% 30.04 in 6.2 mi NW 6.9 mph - N/A   Scattered Clouds
12:50 PM 42.8 °F 40.1 °F 24.8 °F 49% 30.01 in 6.2 mi Variable 4.6 mph - N/A   Scattered Clouds
1:20 PM 42.8 °F 39.3 °F 24.8 °F 49% 30.01 in 6.2 mi NNW 5.8 mph - N/A   Scattered Clouds
1:50 PM 42.8 °F 38.6 °F 21.2 °F 42% 30.01 in 6.2 mi NW 6.9 mph - N/A   Scattered Clouds
2:20 PM 42.8 °F 38.0 °F 21.2 °F 42% 30.01 in 6.2 mi WNW 8.1 mph - N/A   Scattered Clouds
2:50 PM 43 °F - 22 °F 31% 30.00 in 22 mi NW 4.6 mph - -   Partly Cloudy
2:50 PM 42.8 °F 39.3 °F 21.2 °F 42% 29.98 in - NNW 5.8 mph - N/A   Clear
3:20 PM 42.8 °F 38.6 °F 19.4 °F 39% 29.98 in - WNW 6.9 mph - N/A   Clear
3:50 PM 44.6 °F 42.2 °F 19.4 °F 37% 29.98 in - NNW 4.6 mph - N/A   Clear
4:20 PM 42.8 °F 37.5 °F 19.4 °F 39% 29.98 in - WNW 9.2 mph - N/A   Clear
4:50 PM 42.8 °F 38.6 °F 19.4 °F 39% 29.98 in - WNW 6.9 mph - N/A   Clear
5:20 PM 42.8 °F 41.1 °F 19.4 °F 39% 29.98 in - Variable 3.5 mph - N/A   Clear
5:50 PM 43 °F - 20 °F 27% 29.99 in 22 mi West 4.6 mph - -   Overcast
5:50 PM 42.8 °F 40.1 °F 19.4 °F 39% 29.98 in - WNW 4.6 mph - N/A   Clear
6:20 PM 42.8 °F 38.0 °F 19.4 °F 39% 29.98 in - West 8.1 mph - N/A   Clear
6:50 PM 41.0 °F 35.2 °F 19.4 °F 42% 29.98 in - WSW 9.2 mph - N/A   Clear
7:20 PM 41.0 °F 35.2 °F 19.4 °F 42% 29.98 in - WSW 9.2 mph - N/A   Clear
7:50 PM 41.0 °F 35.8 °F 21.2 °F 45% 29.98 in - SW 8.1 mph - N/A   Clear
8:20 PM 41.0 °F 34.7 °F 21.2 °F 45% 29.98 in - SW 10.4 mph - N/A   Clear
8:50 PM 41 °F - 23 °F 36% 29.97 in 17 mi SW 9.2 mph - -   Mostly Cloudy
8:50 PM 41.0 °F 34.3 °F 21.2 °F 45% 29.98 in - WSW 11.5 mph - N/A   Clear
9:20 PM 41.0 °F 34.7 °F 21.2 °F 45% 29.95 in - WSW 10.4 mph - N/A   Clear
9:50 PM 41.0 °F 34.7 °F 23.0 °F 49% 29.95 in 6.2 mi WSW 10.4 mph - N/A   Partly Cloudy
10:20 PM 39.2 °F 32.0 °F 24.8 °F 56% 29.95 in - WSW 11.5 mph - N/A   Clear
10:50 PM 39.2 °F 31.6 °F 24.8 °F 56% 29.95 in - WSW 12.7 mph - N/A   Clear
11:20 PM 37.4 °F 31.4 °F 23.0 °F 56% 29.95 in - WSW 8.1 mph - N/A   Clear
11:50 PM 38 °F - 26 °F 49% 29.94 in 19 mi SW 8.1 mph - -   Overcast
11:50 PM 37.4 °F 32.1 °F 24.8 °F 60% 29.92 in - SSW 6.9 mph - N/A   Clear